| time (UTC) | temp F | wind direction | speed knots | gust knots | rain 1hr in | rain 24hr in | rain mn in | humidity % | barometer mb |
| 20260507182429 | 55 | 244 | 0.9 | 1.7 | 0.00 | 0.03 | 0.00 | 70 | 1016.2 |
| 20260507181429 | 55 | 263 | 0.9 | 2.6 | 0.00 | 0.03 | 0.00 | 70 | 1016.1 |
| 20260507180444 | 56 | 0.0 | 0.0 | 0.00 | 0.03 | 0.00 | 69 | 1015.8 | |
| 20260507175503 | 57 | 0.0 | 0.0 | 0.00 | 0.03 | 0.00 | 67 | 1016.0 | |
| 20260507174439 | 58 | 256 | 0.9 | 1.7 | 0.00 | 0.03 | 0.00 | 66 | 1015.7 |
| 20260507173436 | 58 | 289 | 1.7 | 3.5 | 0.00 | 0.03 | 0.00 | 65 | 1015.5 |
| 20260507172433 | 57 | 276 | 1.7 | 2.6 | 0.00 | 0.03 | 0.00 | 67 | 1015.5 |
| 20260507171431 | 57 | 273 | 2.6 | 6.1 | 0.00 | 0.03 | 0.00 | 67 | 1015.5 |
| 20260507170429 | 57 | 0.0 | 0.0 | 0.00 | 0.03 | 0.00 | 66 | 1015.5 | |
| 20260507165429 | 57 | 218 | 1.7 | 3.5 | 0.00 | 0.03 | 0.00 | 67 | 1015.4 |
| 20260507164429 | 57 | 227 | 1.7 | 3.5 | 0.00 | 0.03 | 0.00 | 67 | 1015.5 |
| 20260507163429 | 57 | 295 | 2.6 | 2.6 | 0.00 | 0.03 | 0.00 | 66 | 1015.6 |
| 20260507162429 | 58 | 285 | 3.5 | 5.2 | 0.00 | 0.03 | 0.00 | 66 | 1015.7 |
| 20260507161444 | 58 | 290 | 3.5 | 3.5 | 0.00 | 0.03 | 0.00 | 65 | 1015.5 |
| 20260507160459 | 58 | 293 | 2.6 | 5.2 | 0.00 | 0.03 | 0.00 | 67 | 1015.6 |
| 20260507155438 | 58 | 293 | 5.2 | 6.1 | 0.00 | 0.03 | 0.00 | 67 | 1015.4 |
| 20260507154435 | 58 | 289 | 7.0 | 9.6 | 0.00 | 0.03 | 0.00 | 65 | 1015.6 |
| 20260507153433 | 59 | 0.0 | 0.0 | 0.00 | 0.03 | 0.00 | 67 | 1015.4 | |
| 20260507152430 | 58 | 0.0 | 0.0 | 0.00 | 0.03 | 0.00 | 65 | 1015.4 | |
| 20260507151429 | 57 | 236 | 1.7 | 2.6 | 0.00 | 0.03 | 0.00 | 65 | 1015.3 |
| 20260507150429 | 57 | 253 | 0.9 | 1.7 | 0.00 | 0.03 | 0.00 | 64 | 1015.4 |
| 20260507145428 | 57 | 270 | 0.9 | 1.7 | 0.00 | 0.03 | 0.00 | 64 | 1015.5 |
| 20260507144429 | 57 | 296 | 3.5 | 3.5 | 0.00 | 0.03 | 0.00 | 62 | 1015.2 |
| 20260507143428 | 57 | 274 | 1.7 | 3.5 | 0.00 | 0.03 | 0.00 | 62 | 1015.0 |
| 20260507142505 | 58 | 295 | 2.6 | 5.2 | 0.00 | 0.03 | 0.00 | 61 | 1015.1 |
| 20260507141440 | 58 | 300 | 6.1 | 11.3 | 0.00 | 0.03 | 0.00 | 59 | 1015.0 |
| 20260507140437 | 58 | 270 | 3.5 | 3.5 | 0.00 | 0.03 | 0.00 | 60 | 1015.1 |
| 20260507135435 | 58 | 280 | 4.3 | 6.1 | 0.00 | 0.03 | 0.00 | 61 | 1015.1 |
| 20260507134432 | 59 | 291 | 4.3 | 7.0 | 0.00 | 0.03 | 0.00 | 63 | 1015.1 |
| 20260507133431 | 59 | 296 | 6.1 | 12.2 | 0.00 | 0.03 | 0.00 | 60 | 1015.1 |
| 20260507132429 | 59 | 283 | 7.0 | 11.3 | 0.00 | 0.03 | 0.00 | 61 | 1015.1 |
| 20260507131435 | 59 | 288 | 5.2 | 7.0 | 0.00 | 0.03 | 0.00 | 60 | 1015.0 |
| 20260507130428 | 60 | 291 | 4.3 | 7.8 | 0.00 | 0.03 | 0.00 | 59 | 1015.0 |
| 20260507125428 | 61 | 300 | 5.2 | 7.0 | 0.00 | 0.03 | 0.00 | 57 | 1015.0 |
| 20260507124445 | 61 | 298 | 3.5 | 5.2 | 0.00 | 0.03 | 0.00 | 61 | 1014.8 |
| 20260507123504 | 61 | 286 | 7.8 | 9.6 | 0.00 | 0.03 | 0.00 | 61 | 1014.8 |
| 20260507122440 | 60 | 267 | 5.2 | 8.7 | 0.00 | 0.03 | 0.00 | 61 | 1014.8 |
| 20260507121437 | 60 | 292 | 5.2 | 7.0 | 0.00 | 0.03 | 0.00 | 60 | 1014.9 |
| 20260507120434 | 61 | 292 | 7.0 | 9.6 | 0.00 | 0.03 | 0.00 | 60 | 1014.9 |
| 20260507115433 | 61 | 307 | 5.2 | 11.3 | 0.00 | 0.03 | 0.00 | 61 | 1014.8 |
| 20260507114428 | 60 | 286 | 7.0 | 9.6 | 0.00 | 0.03 | 0.00 | 61 | 1014.7 |
| 20260507113428 | 59 | 304 | 5.2 | 7.0 | 0.00 | 0.03 | 0.00 | 61 | 1014.9 |
| 20260507112429 | 60 | 329 | 7.0 | 11.3 | 0.00 | 0.03 | 0.00 | 59 | 1015.0 |
| 20260507111428 | 60 | 295 | 5.2 | 12.2 | 0.00 | 0.03 | 0.00 | 60 | 1015.0 |
| 20260507110444 | 60 | 298 | 5.2 | 7.0 | 0.00 | 0.03 | 0.00 | 61 | 1014.9 |
| 20260507105444 | 60 | 305 | 4.3 | 6.1 | 0.00 | 0.03 | 0.00 | 61 | 1015.1 |
| 20260507104443 | 59 | 278 | 4.3 | 5.2 | 0.00 | 0.03 | 0.00 | 61 | 1015.1 |
| 20260507103439 | 58 | 294 | 6.1 | 7.8 | 0.00 | 0.03 | 0.00 | 60 | 1015.2 |
| 20260507102457 | 59 | 289 | 5.2 | 9.6 | 0.00 | 0.03 | 0.00 | 59 | 1015.4 |
| 20260507101435 | 59 | 330 | 5.2 | 8.7 | 0.00 | 0.03 | 0.00 | 60 | 1015.3 |
| 20260507100430 | 59 | 290 | 7.8 | 11.3 | 0.00 | 0.03 | 0.00 | 61 | 1015.0 |
| 20260507095428 | 59 | 283 | 7.8 | 13.0 | 0.00 | 0.03 | 0.00 | 60 | 1015.2 |
| 20260507094425 | 60 | 291 | 6.1 | 8.7 | 0.00 | 0.03 | 0.00 | 61 | 1015.1 |
| 20260507093444 | 59 | 321 | 4.3 | 6.1 | 0.00 | 0.03 | 0.00 | 64 | 1015.1 |
| 20260507092420 | 59 | 312 | 8.7 | 14.8 | 0.00 | 0.03 | 0.00 | 62 | 1015.2 |
| 20260507091437 | 59 | 286 | 6.1 | 9.6 | 0.00 | 0.03 | 0.00 | 63 | 1015.2 |
| 20260507090444 | 58 | 285 | 6.1 | 9.6 | 0.00 | 0.03 | 0.00 | 61 | 1015.2 |
| 20260507085442 | 58 | 294 | 7.8 | 12.2 | 0.00 | 0.03 | 0.00 | 62 | 1015.2 |
| 20260507084500 | 57 | 290 | 12.2 | 16.5 | 0.00 | 0.03 | 0.00 | 62 | 1015.0 |
| 20260507083456 | 57 | 260 | 8.7 | 11.3 | 0.00 | 0.03 | 0.00 | 64 | 1015.0 |
| 20260507082453 | 57 | 266 | 9.6 | 14.8 | 0.00 | 0.03 | 0.00 | 63 | 1014.8 |
| 20260507081452 | 56 | 291 | 6.1 | 12.2 | 0.00 | 0.03 | 0.00 | 66 | 1014.8 |
| 20260507080427 | 56 | 296 | 7.8 | 13.9 | 0.00 | 0.03 | 0.00 | 66 | 1014.6 |
| 20260507075425 | 56 | 314 | 7.0 | 11.3 | 0.00 | 0.03 | 0.00 | 66 | 1014.9 |
| 20260507074422 | 55 | 281 | 5.2 | 6.1 | 0.00 | 0.03 | 0.00 | 68 | 1014.7 |
| 20260507073419 | 55 | 295 | 8.7 | 15.6 | 0.00 | 0.03 | 0.00 | 67 | 1014.7 |
| 20260507072418 | 55 | 291 | 5.2 | 8.7 | 0.00 | 0.03 | 0.00 | 67 | 1014.7 |
| 20260507071444 | 55 | 293 | 5.2 | 7.0 | 0.00 | 0.03 | 0.00 | 68 | 1014.6 |
| 20260507070442 | 56 | 300 | 8.7 | 13.0 | 0.00 | 0.03 | 0.00 | 67 | 1014.7 |
| 20260507065438 | 55 | 300 | 3.5 | 5.2 | 0.00 | 0.03 | 0.00 | 67 | 1014.8 |
| 20260507064435 | 55 | 284 | 7.8 | 12.2 | 0.00 | 0.03 | 0.00 | 67 | 1014.7 |
| 20260507063432 | 56 | 283 | 5.2 | 8.7 | 0.00 | 0.03 | 0.00 | 66 | 1014.9 |
| 20260507062429 | 55 | 286 | 7.8 | 9.6 | 0.00 | 0.03 | 0.00 | 66 | 1014.8 |
| 20260507061428 | 55 | 270 | 3.5 | 7.0 | 0.00 | 0.03 | 0.00 | 67 | 1014.5 |
| 20260507060424 | 56 | 280 | 7.0 | 9.6 | 0.00 | 0.03 | 0.00 | 68 | 1014.5 |
| 20260507055421 | 55 | 278 | 2.6 | 5.2 | 0.00 | 0.03 | 0.00 | 69 | 1014.5 |
| 20260507054420 | 55 | 256 | 3.5 | 6.1 | 0.00 | 0.03 | 0.00 | 68 | 1014.2 |
| 20260507053417 | 55 | 270 | 3.5 | 6.1 | 0.00 | 0.03 | 0.00 | 68 | 1014.2 |
| 20260507052443 | 55 | 291 | 2.6 | 2.6 | 0.00 | 0.03 | 0.00 | 69 | 1014.2 |
| 20260507051502 | 55 | 246 | 1.7 | 2.6 | 0.00 | 0.03 | 0.00 | 67 | 1013.9 |
| 20260507050558 | 54 | 229 | 0.9 | 1.7 | 0.00 | 0.03 | 0.00 | 70 | 1013.9 |
| 20260507045434 | 53 | 194 | 3.5 | 6.1 | 0.00 | 0.03 | 0.00 | 72 | 1013.7 |
| 20260507044431 | 52 | 215 | 1.7 | 2.6 | 0.00 | 0.03 | 0.00 | 73 | 1013.7 |
| 20260507043429 | 52 | 265 | 1.7 | 2.6 | 0.00 | 0.03 | 0.00 | 73 | 1013.6 |
| 20260507042426 | 51 | 240 | 1.7 | 1.7 | 0.00 | 0.03 | 0.00 | 75 | 1013.6 |
| 20260507041424 | 51 | 220 | 1.7 | 3.5 | 0.00 | 0.03 | 0.00 | 76 | 1013.5 |
| 20260507040420 | 51 | 192 | 1.7 | 1.7 | 0.00 | 0.03 | 0.00 | 76 | 1013.4 |
| 20260507035430 | 51 | 267 | 2.6 | 3.5 | 0.00 | 0.03 | 0.00 | 76 | 1013.1 |
| 20260507034446 | 51 | 201 | 1.7 | 1.7 | 0.00 | 0.03 | 0.00 | 77 | 1013.1 |
| 20260507033442 | 51 | 229 | 0.9 | 1.7 | 0.00 | 0.03 | 0.00 | 77 | 1012.9 |
| 20260507032439 | 51 | 283 | 1.7 | 2.6 | 0.00 | 0.03 | 0.00 | 76 | 1012.8 |
| 20260507031458 | 52 | 269 | 0.9 | 2.6 | 0.00 | 0.03 | 0.00 | 76 | 1013.0 |
| 20260507030435 | 52 | 269 | 4.3 | 7.8 | 0.00 | 0.03 | 0.00 | 75 | 1013.0 |
| 20260507025431 | 52 | 293 | 1.7 | 3.5 | 0.00 | 0.03 | 0.00 | 76 | 1012.8 |
| 20260507024433 | 52 | 256 | 4.3 | 6.1 | 0.00 | 0.03 | 0.00 | 77 | 1012.8 |
| 20260507023429 | 52 | 170 | 0.9 | 1.7 | 0.00 | 0.03 | 0.00 | 77 | 1012.6 |
| 20260507022430 | 52 | 226 | 1.7 | 1.7 | 0.00 | 0.03 | 0.00 | 77 | 1012.8 |
| 20260507021429 | 52 | 255 | 1.7 | 1.7 | 0.00 | 0.03 | 0.00 | 77 | 1012.4 |
| 20260507020428 | 52 | 270 | 1.7 | 3.5 | 0.00 | 0.03 | 0.00 | 77 | 1012.6 |
| 20260507015505 | 52 | 285 | 3.5 | 7.8 | 0.00 | 0.03 | 0.00 | 78 | 1012.6 |
| 20260507014442 | 51 | 265 | 1.7 | 2.6 | 0.00 | 0.03 | 0.00 | 78 | 1012.6 |
| 20260507013439 | 52 | 259 | 1.7 | 3.5 | 0.00 | 0.03 | 0.00 | 78 | 1012.7 |
| 20260507012436 | 52 | 265 | 0.9 | 0.9 | 0.00 | 0.03 | 0.00 | 76 | 1012.1 |
| 20260507011435 | 52 | 254 | 3.5 | 6.1 | 0.00 | 0.03 | 0.00 | 75 | 1012.2 |
| 20260507010430 | 53 | 287 | 7.0 | 12.2 | 0.00 | 0.03 | 0.00 | 73 | 1012.1 |
| 20260507005428 | 53 | 299 | 2.6 | 5.2 | 0.00 | 0.03 | 0.00 | 74 | 1012.2 |
| 20260507004426 | 53 | 267 | 4.3 | 7.8 | 0.00 | 0.03 | 0.00 | 74 | 1012.2 |
| 20260507003429 | 52 | 267 | 0.9 | 1.7 | 0.00 | 0.03 | 0.00 | 76 | 1012.1 |
| 20260507002428 | 52 | 219 | 4.3 | 7.0 | 0.00 | 0.03 | 0.00 | 77 | 1012.1 |
| 20260507001429 | 52 | 235 | 0.9 | 2.6 | 0.00 | 0.03 | 0.00 | 78 | 1012.3 |
| 20260507000445 | 52 | 263 | 1.7 | 5.2 | 0.00 | 0.03 | 0.00 | 79 | 1012.1 |
| 20260506235502 | 52 | 279 | 2.6 | 5.2 | 0.00 | 0.03 | 0.00 | 80 | 1012.2 |
| 20260506234438 | 52 | 263 | 5.2 | 8.7 | 0.00 | 0.03 | 0.00 | 80 | 1012.5 |
| 20260506233457 | 52 | 267 | 3.5 | 5.2 | 0.00 | 0.03 | 0.00 | 80 | 1012.1 |
| 20260506232433 | 52 | 209 | 4.3 | 7.0 | 0.00 | 0.03 | 0.00 | 81 | 1012.1 |
| 20260506231430 | 52 | 271 | 4.3 | 7.0 | 0.00 | 0.03 | 0.00 | 82 | 1012.0 |
| 20260506230429 | 52 | 261 | 3.5 | 5.2 | 0.00 | 0.03 | 0.00 | 83 | 1012.0 |
| 20260506225429 | 52 | 252 | 1.7 | 2.6 | 0.00 | 0.03 | 0.00 | 84 | 1012.0 |
| 20260506224431 | 52 | 271 | 1.7 | 3.5 | 0.00 | 0.03 | 0.00 | 85 | 1011.8 |
| 20260506223507 | 52 | 271 | 1.7 | 3.5 | 0.00 | 0.03 | 0.00 | 86 | 1011.7 |
| 20260506222434 | 52 | 285 | 3.5 | 6.1 | 0.00 | 0.03 | 0.00 | 86 | 1011.8 |
| 20260506221443 | 51 | 274 | 3.5 | 6.1 | 0.00 | 0.03 | 0.00 | 88 | 1011.6 |
| 20260506220441 | 51 | 225 | 2.6 | 6.1 | 0.00 | 0.03 | 0.00 | 90 | 1011.7 |
| 20260506215458 | 51 | 269 | 4.3 | 6.1 | 0.01 | 0.03 | 0.03 | 91 | 1011.7 |
| 20260506214435 | 52 | 293 | 5.2 | 7.0 | 0.01 | 0.03 | 0.03 | 91 | 1011.4 |
| 20260506213433 | 52 | 251 | 2.6 | 3.5 | 0.02 | 0.03 | 0.03 | 94 | 1011.4 |
| 20260506212452 | 52 | 285 | 2.6 | 5.2 | 0.03 | 0.03 | 0.03 | 94 | 1011.2 |
| 20260506211429 | 52 | 272 | 4.3 | 6.1 | 0.03 | 0.03 | 0.03 | 94 | 1011.2 |
| 20260506210429 | 52 | 290 | 6.1 | 11.3 | 0.03 | 0.03 | 0.03 | 93 | 1010.9 |
| 20260506205430 | 52 | 282 | 7.0 | 8.7 | 0.02 | 0.02 | 0.02 | 93 | 1010.6 |
| 20260506204431 | 53 | 287 | 10.4 | 14.8 | 0.02 | 0.02 | 0.02 | 92 | 1010.7 |
| 20260506203429 | 54 | 302 | 10.4 | 16.5 | 0.01 | 0.01 | 0.01 | 90 | 1010.5 |
| 20260506202444 | 55 | 282 | 13.0 | 30.4 | 0.00 | 0.00 | 0.00 | 86 | 1010.1 |
| 20260506201441 | 56 | 283 | 10.4 | 13.9 | 0.00 | 0.00 | 0.00 | 84 | 1009.7 |
| 20260506200439 | 57 | 291 | 9.6 | 13.0 | 0.00 | 0.00 | 0.00 | 82 | 1009.6 |
| 20260506195435 | 57 | 282 | 13.0 | 21.7 | 0.00 | 0.00 | 0.00 | 80 | 1009.4 |
| 20260506194433 | 58 | 301 | 10.4 | 18.2 | 0.00 | 0.00 | 0.00 | 76 | 1008.8 |
| 20260506193430 | 58 | 290 | 5.2 | 9.6 | 0.00 | 0.00 | 0.00 | 74 | 1009.0 |
| 20260506192429 | 58 | 283 | 8.7 | 14.8 | 0.00 | 0.00 | 0.00 | 72 | 1008.6 |
| 20260506191429 | 59 | 283 | 4.3 | 7.8 | 0.00 | 0.00 | 0.00 | 69 | 1008.2 |
| 20260506190429 | 59 | 294 | 5.2 | 8.7 | 0.00 | 0.00 | 0.00 | 68 | 1008.3 |
| 20260506185427 | 59 | 288 | 10.4 | 13.0 | 0.00 | 0.00 | 0.00 | 68 | 1008.2 |
| 20260506184444 | 59 | 294 | 8.7 | 12.2 | 0.00 | 0.00 | 0.00 | 68 | 1007.8 |
| 20260506183444 | 59 | 291 | 8.7 | 11.3 | 0.00 | 0.00 | 0.00 | 67 | 1007.4 |